Cargo Plus Coastal Challenge

filter by:

Full Monty 33km Team Relay

Race Number Name Time Place Division Division Place
171 Team Wairau Legends 4:10:50 1 4-5 Person Team 1
179 Team Luna Runna 4:10:55 2 2-3 Person Team 1
162 Team Kinetic 1 4:16:30 3 4-5 Person Team 2
174 Team TEAM CARGOPLUS - OLD AND BROKEN 4:38:29 4 4-5 Person Team 3
169 Team Wairau Raiders 4:40:26 5 4-5 Person Team 4
178 Team Fresh Team PNS Albany 4:40:57 6 4-5 Person Team 5
163 Team Sistema Run 1 4:41:00 7 4-5 Person Team 6
165 Team Wairau Stickman 4:41:09 8 4-5 Person Team 7
160 Team The Boyz 4:46:12 9 2-3 Person Team 2
158 Team Cuesko 4 4:47:30 10 2-3 Person Team 3
164 Team Sistema Run 2 4:47:33 11 4-5 Person Team 8
177 Team Team Gergus 4:52:11 12 2-3 Person Team 4
166 Team Wairau Rascals 5:03:41 13 4-5 Person Team 9
176 Team Soggy Chippies 5:10:16 14 4-5 Person Team 10
168 Team Sistema Run 3 5:12:37 15 4-5 Person Team 11
180 Team The Tim Reed 5:14:28 16 2-3 Person Team 5
175 Team Harbour Hospice 5:19:33 17 4-5 Person Team 12
173 Team Wairau Waders 5:29:51 18 4-5 Person Team 13
161 Team The Bridges 5:38:23 19 2-3 Person Team 6
156 Team Cuesko 2 5:41:04 20 2-3 Person Team 7
157 Team Cuesko 3 5:47:02 21 2-3 Person Team 8
152 Team Charlies Point 5:55:12 22 2-3 Person Team 9
167 Team Wairau Wanderers 5:57:24 23 4-5 Person Team 14
155 Team Cuesko 1 6:02:14 24 2-3 Person Team 10
170 Team Wairau Warriors 6:04:02 25 4-5 Person Team 15
172 Team Wairau Wanabies 6:04:42 26 4-5 Person Team 16
153 Team TEAM AJ 6:48:31 27 4-5 Person Team 17
154 Team Eat Sleep and Run 6:48:31 28 4-5 Person Team 18